User: anonymous
Location: Newark
(40.7360°N, 74.1730°W)
Time: 20:33:46
(UTC-04:00)
Language:

ISS - Orbit

View from above orbital plane
View from above orbital plane
View from above satellite
View from above satellite

Ground track
Ground track

The orbit data is extracted from the following two-line orbital elements,

1 25544U 98067A   14209.62399416  .00002438  00000-0  49923-4 0  7880
2 25544 051.6477 254.1938 0006388 300.9119 196.5826 15.50458789897757
Epoch (UTC): 28 July 2014 14:58:33
Eccentricity: 0.0006388
inclination: 51.6477°
perigee height: 411 km
apogee height: 420 km
right ascension of ascending node: 254.1938°
argument of perigee: 300.9119°
revolutions per day: 15.50458789
mean anomaly at epoch: 196.5826°
orbit number at epoch: 89775

The dashed part of the orbit path shows where the satellite is in the earth's shadow,  

DLR